Waseca, MN

7:21 AM CST on December 13, 2019 (GMT -0600)
Waseca Municipal

Weather History for KACQ - July, 2019

Change the Weather History Date:

Monday, July 22, 2019

  Actual Average Record
Temperature  
Mean Temperature 64 °F -  
Max Temperature 73 °F 81 °F 100 °F (1934)
Min Temperature 55 °F 60 °F 46 °F (1947)
Degree Days  
Heating Degree Days 1    
Growing Degree Days 14 (Base 50)    
Moisture  
Dew Point 54 °F    
Average Humidity 71    
Maximum Humidity 94    
Minimum Humidity 46    
Precipitation  
Precipitation 0.00 in - - ()
Sea Level Pressure  
Sea Level Pressure 30.22 in    
Wind  
Wind Speed 8 mph (NNW)    
Max Wind Speed 14 mph    
Max Gust Speed 20 mph    
Visibility 10 miles    
Events      
Averages and records for this station are not official NWS values.
T = Trace of Precipitation, MM = Missing Value Source: NWS Daily Summary

Daily Weather History Graph

Daily Weather History Graph

Search for Another Location

Airport or City:

Astronomy

Jul. 22, 2019 Rise Set
Actual Time 5:51 AM CDT 8:49 PM CDT
Civil Twilight 5:17 AM CDT 9:23 PM CDT
Nautical Twilight 4:33 AM CDT 10:06 PM CDT
Astronomical Twilight 3:41 AM CDT 10:58 PM CDT
Moon 11:59 PM CDT (7/22) 11:18 AM CDT (7/22)
Length of Visible Light 16h 06m
Length of Day
14h 57m
Waning Gibbous, 72% of the Moon is Illuminated
Jul 22
Waning Gibbous
Jul 24
Last Quarter
Jul 31
New
Aug 7
First Quarter
Aug 15
Full

Hourly Weather History & Observations

Time (CDT) Temp. Dew Point Humidity Pressure Visibility Wind Dir Wind Speed Gust Speed Precip Events Conditions
12:19 AM 62.6 °F 59.0 °F 88% 30.14 in 10.0 mi NNW 6.9 mph - N/A   Clear
12:37 AM 62.6 °F 59.0 °F 88% 30.14 in 10.0 mi NNW 5.8 mph - N/A   Clear
12:56 AM 62.6 °F 59.0 °F 88% 30.16 in 10.0 mi NNW 5.8 mph - N/A   Clear
1:15 AM 62.6 °F 59.0 °F 88% 30.16 in 10.0 mi NNW 6.9 mph - N/A   Clear
1:35 AM 62.6 °F 57.2 °F 82% 30.16 in 10.0 mi NNW 9.2 mph - N/A   Clear
1:59 AM 62.6 °F 59.0 °F 88% 30.16 in 10.0 mi NNW 8.1 mph - N/A   Clear
2:18 AM 62.6 °F 59.0 °F 88% 30.16 in 10.0 mi NNW 8.1 mph - N/A   Clear
2:36 AM 62.6 °F 57.2 °F 82% 30.17 in 10.0 mi North 8.1 mph - N/A   Clear
2:55 AM 60.8 °F 57.2 °F 88% 30.17 in 10.0 mi North 8.1 mph - N/A   Clear
3:15 AM 59.0 °F 55.4 °F 88% 30.17 in 10.0 mi North 8.1 mph - N/A   Clear
3:39 AM 59.0 °F 55.4 °F 88% 30.17 in 10.0 mi NNW 5.8 mph - N/A   Clear
3:58 AM 59.0 °F 55.4 °F 88% 30.18 in 10.0 mi NNW 6.9 mph - N/A   Clear
4:17 AM 59.0 °F 55.4 °F 88% 30.18 in 10.0 mi NNW 6.9 mph - N/A   Clear
4:36 AM 59.0 °F 55.4 °F 88% 30.18 in 10.0 mi NNW 5.8 mph - N/A   Clear
4:55 AM 59.0 °F 55.4 °F 88% 30.19 in 10.0 mi North 8.1 mph - N/A   Clear
5:15 AM 57.2 °F 53.6 °F 88% 30.19 in 10.0 mi NNW 5.8 mph - N/A   Clear
5:39 AM 55.4 °F 53.6 °F 94% 30.20 in 10.0 mi North 8.1 mph - N/A   Clear
5:58 AM 55.4 °F 53.6 °F 94% 30.21 in 10.0 mi North 5.8 mph - N/A   Clear
6:16 AM 55.4 °F 51.8 °F 88% 30.21 in 10.0 mi NNW 6.9 mph - N/A   Clear
6:35 AM 55.4 °F 51.8 °F 88% 30.21 in 10.0 mi North 6.9 mph - N/A   Clear
6:55 AM 55.4 °F 51.8 °F 88% 30.22 in 10.0 mi North 5.8 mph - N/A   Clear
7:15 AM 59.0 °F 53.6 °F 82% 30.23 in 10.0 mi North 5.8 mph - N/A   Clear
7:38 AM 59.0 °F 53.6 °F 82% 30.23 in 10.0 mi North 6.9 mph - N/A   Clear
7:58 AM 60.8 °F 55.4 °F 82% 30.23 in 10.0 mi North 6.9 mph - N/A   Clear
8:16 AM 62.6 °F 53.6 °F 72% 30.24 in 10.0 mi North 8.1 mph - N/A   Clear
8:35 AM 62.6 °F 53.6 °F 72% 30.25 in 10.0 mi North 9.2 mph - N/A   Clear
8:55 AM 62.6 °F 51.8 °F 68% 30.25 in 10.0 mi North 6.9 mph - N/A   Clear
9:15 AM 64.4 °F 53.6 °F 68% 30.25 in 10.0 mi North 10.4 mph - N/A   Clear
9:38 AM 64.4 °F 51.8 °F 64% 30.24 in 10.0 mi North 10.4 mph - N/A   Clear
9:56 AM 68.0 °F 51.8 °F 56% 30.25 in 10.0 mi North 11.5 mph 17.3 mph N/A   Clear
10:15 AM 68.0 °F 51.8 °F 56% 30.25 in 10.0 mi North 13.8 mph - N/A   Clear
10:35 AM 69.8 °F 51.8 °F 53% 30.26 in 10.0 mi North 13.8 mph 19.6 mph N/A   Clear
10:55 AM 69.8 °F 51.8 °F 53% 30.26 in 10.0 mi NNE 12.7 mph 16.1 mph N/A   Clear
11:18 AM 69.8 °F 51.8 °F 53% 30.26 in 10.0 mi NNE 12.7 mph - N/A   Scattered Clouds
11:36 AM 71.6 °F 51.8 °F 50% 30.26 in 10.0 mi North 9.2 mph 19.6 mph N/A   Scattered Clouds
11:55 AM 71.6 °F 50.0 °F 46% 30.27 in 10.0 mi North 11.5 mph 17.3 mph N/A   Clear
12:15 PM 71.6 °F 51.8 °F 50% 30.27 in 10.0 mi NNE 12.7 mph 18.4 mph N/A   Clear
12:35 PM 71.6 °F 51.8 °F 50% 30.27 in 10.0 mi North 10.4 mph - N/A   Clear
12:58 PM 71.6 °F 51.8 °F 50% 30.27 in 10.0 mi North 11.5 mph 17.3 mph N/A   Scattered Clouds
1:16 PM 71.6 °F 50.0 °F 46% 30.27 in 10.0 mi North 9.2 mph 17.3 mph N/A   Scattered Clouds
1:35 PM 71.6 °F 50.0 °F 46% 30.26 in 10.0 mi North 12.7 mph 17.3 mph N/A   Scattered Clouds
1:55 PM 71.6 °F 51.8 °F 50% 30.26 in 10.0 mi North 9.2 mph 16.1 mph N/A   Scattered Clouds
2:39 PM 71.6 °F 51.8 °F 50% 30.25 in 10.0 mi North 9.2 mph - N/A   Scattered Clouds
2:57 PM 71.6 °F 51.8 °F 50% 30.25 in 10.0 mi NNW 10.4 mph - N/A   Scattered Clouds
3:15 PM 71.6 °F 51.8 °F 50% 30.25 in 10.0 mi NNW 11.5 mph - N/A   Scattered Clouds
3:35 PM 71.6 °F 53.6 °F 53% 30.24 in 10.0 mi NNW 9.2 mph - N/A   Scattered Clouds
3:55 PM 73.4 °F 53.6 °F 50% 30.24 in 10.0 mi NW 10.4 mph - N/A   Scattered Clouds
4:19 PM 71.6 °F 53.6 °F 53% 30.24 in 10.0 mi NNW 8.1 mph 16.1 mph N/A   Scattered Clouds
4:37 PM 71.6 °F 51.8 °F 50% 30.23 in 10.0 mi NNW 8.1 mph - N/A   Scattered Clouds
4:55 PM 71.6 °F 51.8 °F 50% 30.23 in 10.0 mi North 9.2 mph - N/A   Clear
5:15 PM 73.4 °F 53.6 °F 50% 30.23 in 10.0 mi NNW 10.4 mph - N/A   Scattered Clouds
5:35 PM 71.6 °F 51.8 °F 50% 30.23 in 10.0 mi NNW 9.2 mph - N/A   Scattered Clouds
5:59 PM 71.6 °F 51.8 °F 50% 30.22 in 10.0 mi NNW 9.2 mph - N/A   Scattered Clouds
6:17 PM 71.6 °F 51.8 °F 50% 30.22 in 10.0 mi NW 9.2 mph - N/A   Scattered Clouds
6:36 PM 71.6 °F 51.8 °F 50% 30.21 in 10.0 mi NNW 8.1 mph - N/A   Scattered Clouds
6:55 PM 71.6 °F 53.6 °F 53% 30.21 in 10.0 mi NW 4.6 mph - N/A   Clear
7:15 PM 71.6 °F 55.4 °F 57% 30.22 in 10.0 mi NW 5.8 mph - N/A   Clear
7:35 PM 69.8 °F 55.4 °F 60% 30.22 in 10.0 mi NW 4.6 mph - N/A   Clear
7:58 PM 68.0 °F 55.4 °F 64% 30.22 in 10.0 mi WNW 4.6 mph - N/A   Clear
8:16 PM 64.4 °F 57.2 °F 77% 30.22 in 10.0 mi WNW 4.6 mph - N/A   Clear
8:35 PM 62.6 °F 57.2 °F 82% 30.22 in 10.0 mi WNW 4.6 mph - N/A   Clear
8:55 PM 62.6 °F 55.4 °F 77% 30.22 in 10.0 mi WNW 4.6 mph - N/A   Clear
9:15 PM 62.6 °F 55.4 °F 77% 30.22 in 10.0 mi WNW 4.6 mph - N/A   Clear
9:38 PM 59.0 °F 55.4 °F 88% 30.23 in 10.0 mi WNW 4.6 mph - N/A   Clear
9:57 PM 59.0 °F 53.6 °F 82% 30.23 in 10.0 mi WNW 4.6 mph - N/A   Clear
10:15 PM 59.0 °F 55.4 °F 88% 30.23 in 10.0 mi WNW 4.6 mph - N/A   Clear
10:35 PM 59.0 °F 55.4 °F 88% 30.23 in 10.0 mi WNW 4.6 mph - N/A   Clear
10:55 PM 59.0 °F 55.4 °F 88% 30.23 in 10.0 mi WNW 4.6 mph - N/A   Clear
11:00 PM 59.0 °F 55.4 °F 88% 30.23 in 10.0 mi WNW 4.6 mph - N/A   Clear
11:18 PM 59.0 °F 53.6 °F 82% 30.24 in 10.0 mi WNW 3.5 mph - N/A   Clear
11:37 PM 55.4 °F 53.6 °F 94% 30.24 in 10.0 mi WNW 4.6 mph - N/A   Clear
11:55 PM 55.4 °F 53.6 °F 94% 30.24 in 10.0 mi Calm Calm - N/A   Clear